sat.trackr.live / text

‹ back to catalog

STARLINK-3135

NORAD 49424 · 2021-104S

PAYLOAD ACTIVE UNKNOWN

§ Identity

Operator
Country
US
Launch date
2021-11-13
Launch site
AFETR
Launch vehicle
Mass (kg)
RCS (m²)

Purposes: comms

External: N2YO · Heavens-Above · Gunter

§ Orbital elements

Epoch: 2026-05-24T23:57:42.509088Z

Period
95.44 min
Inclination
53.2146°
Eccentricity
0.0001160
Mean motion
15.08836523 rev/d
Perigee alt
539.0 km
Apogee alt
540.6 km
Semi-major
6,917.9 km
B*
4.2888e-5
RAAN
246.5574°
Arg perigee
89.9212°
Mean anomaly
270.1913°
Rev number
25,014

§ Raw data

STARLINK-31351 49424U 21104S   26144.99840867  .00000395  00000+0  42888-4 0  99992 49424  53.2146 246.5574 0001160  89.9212 270.1913 15.08836523250144

JSON: /api/v1/satellites/49424 · /tle

For live sub-satellite position, see the globe view (requires WebGL).

§ Visibility from observer

Set your observer location to see the next 7 days of passes ≥ 10°. The values pass through the URL so the page stays shareable.

No JS? Fill the form by hand. The geolocation button needs JavaScript.